This demonstration page uses our WeatherBlox Daily Observations layout. Learn more.

39.92423, -83.80882

Hourly Observations for May 3, 2016

Temp ( °F °C ) Dew Point ( °F °C ) Humidity (%) Winds ( mph kmh ) Pressure ( in mb ) Visibility ( mi km ) Precip ( " mm )
12:05 am 00:05 Cloudy 52 11 48 9 88 88 NNE 9 15 29.97 1015 10 16.0934 0 0
12:49 am 00:49 Cloudy 52 11 48 9 88 88 NNE 6 9 29.97 1015 10 16.0934 0 0
12:56 am 00:56 Cloudy 51 10.5 48 8.8 89 89 NNE 6 9 29.95 1014 10 16.0934 0 0
1:56 am 01:56 Cloudy 50 10 47 8.3 89 89 N 7 11 29.94 1014 10 16.0934 0 0
2:56 am 02:56 Cloudy 49 9.4 47 8.3 93 93 NNE 5 7 29.93 1014 10 16.0934 0 0
3:56 am 03:56 Cloudy 49 9.4 47 8.3 93 93 NNE 7 11 29.92 1013 10 16.0934 0 0
4:56 am 04:56 Cloudy 48 8.8 47 8.3 97 97 NE 5 7 29.92 1013 10 16.0934 0 0
5:56 am 05:56 Cloudy 48 8.8 47 8.3 97 97 NNE 6 9 29.92 1013 10 16.0934 0 0
6:07 am 06:07 Cloudy 48 9 46 8 94 94 N 5 7 29.94 1014 10 16.0934 0 0
6:56 am 06:56 Mostly Cloudy 48 8.8 47 8.3 97 97 NNE 6 9 29.92 1013 10 16.0934 0 0
7:20 am 07:20 Cloudy 48 9 46 8 94 94 NNE 5 7 29.94 1014 10 16.0934 0 0
7:40 am 07:40 Cloudy 48 9 46 8 94 94 N 6 9 29.97 1015 10 16.0934 0 0
7:56 am 07:56 Cloudy 49 9.4 47 8.3 93 93 N 5 7 29.93 1014 10 16.0934 0 0
8:20 am 08:20 Cloudy 48 9 46 8 94 94 NNE 6 9 29.97 1015 10 16.0934 0 0
8:56 am 08:56 Cloudy 50 10 46 7.7 86 86 NNE 5 7 29.93 1014 10 16.0934 0 0
9:12 am 09:12 Cloudy 50 10 46 8 88 88 NNE 6 9 29.94 1014 10 16.0934 0 0
9:56 am 09:56 Cloudy 51 10.5 46 7.7 83 83 NNE 7 11 29.93 1013 10 16.0934 0 0
10:56 am 10:56 Mostly Cloudy 54 12.2 47 8.3 77 77 NNE 6 9 29.92 1013 10 16.0934 0 0
11:28 am 11:28 Mostly Cloudy 55 13 46 8 72 72 NW 3 6 29.94 1014 10 16.0934 0 0
11:44 am 11:44 Mostly Cloudy 55 13 46 8 72 72 VRB 6 9 29.91 1013 10 16.0934 0 0
11:56 am 11:56 Mostly Cloudy 55 12.7 46 7.7 72 72 NNW 7 11 29.92 1013 10 16.0934 0 0
12:56 pm 12:56 Mostly Cloudy 57 13.8 46 7.7 67 67 NNE 7 11 29.91 1013 10 16.0934 0 0
1:06 pm 13:06 Mostly Cloudy 57 14 46 8 67 67 NE 3 6 29.91 1013 10 16.0934 0 0
1:14 pm 13:14 Cloudy 57 14 45 7 63 63 NW 6 9 29.91 1013 10 16.0934 0 0
1:56 pm 13:56 Mostly Cloudy 57 13.8 46 7.7 67 67 WNW 5 7 29.91 1013 10 16.0934 0 0
2:56 pm 14:56 Cloudy with Mist and Fog 53 11.6 49 9.4 86 86 WSW 7 11 29.9 1013 5 8.0467 0 0.0254
3:56 pm 15:56 Cloudy 56 13.3 49 9.4 77 77 W 7 11 29.89 1012 10 16.0934 0 0
4:56 pm 16:56 Mostly Cloudy 57 13.8 48 8.8 72 72 VRB 5 7 29.88 1012 10 16.0934 0 0
5:56 pm 17:56 Mostly Cloudy 57 13.8 47 8.3 70 70 W 5 7 29.87 1012 10 16.0934 0 0
6:56 pm 18:56 Cloudy 57 13.8 48 8.8 72 72 W 5 7 29.87 1011 10 16.0934 0 0
7:56 pm 19:56 Cloudy 57 13.8 48 8.8 72 72 WNW 5 7 29.86 1011 10 16.0934 0 0
8:56 pm 20:56 Cloudy 54 12.2 49 9.4 83 83 W 5 7 29.87 1011 10 16.0934 0 0
9:56 pm 21:56 Cloudy 54 12.2 49 9.4 83 83 WSW 3 6 29.87 1011 10 16.0934 0 0
10:56 pm 22:56 Mostly Cloudy 53 11.6 50 10 90 90 SW 5 7 29.86 1011 10 16.0934 0 0
11:56 pm 23:56 Mostly Cloudy 50 10 49 9.4 96 96 SW 5 7 29.84 1011 10 16.0934 0 0

Powered by AerisWeather